Location: Baia Mare
(47.6567°N, 23.5850°E)
Time: 20:28:14
(UTC+02:00)

ISS - Pass Details

Date: 29 September 2018
Orbit: 401 x 408 km, 51.6° (Epoch: 16 November)

Event Time Altitude Azimuth Distance (km) Brightness Sun altitude
Rises 21:40:16 0° 285° (WNW) 2,346 1.3 -25.5°
Reaches altitude 10° 21:42:27 10° 293° (WNW) 1,483 0.0 -25.8°
Enters shadow 21:44:14 26° 312° (NW) 852 -1.6 -26.1°
